owner,sensor,date,latitude,longitude,vertical_datum,wind_speed,wind_to_direction,wind_speed_of_gust,qcFlag 
TABS,ioos:station:wmo:42044:1,2019-10-16T13:00:00Z,26.1914,-97.0507,0.0,1.39,232.5,1.95,'11111222,11111222,11111222' 
TABS,ioos:station:wmo:42044:1,2019-10-16T14:00:00Z,26.1914,-97.0507,0.0,5.89,330.4,7.37,'11111222,11111222,11111222' 
TABS,ioos:station:wmo:42044:1,2019-10-16T15:00:00Z,26.1914,-97.0507,0.0,8.43,333.9,10.32,'11111222,11111222,11111222' 
TABS,ioos:station:wmo:42044:1,2019-10-16T16:00:00Z,26.1914,-97.0507,0.0,8.0,337.9,9.64,'11111222,11111222,11111222' 
TABS,ioos:station:wmo:42044:1,2019-10-16T17:00:00Z,26.1914,-97.0507,0.0,7.54,357.3,9.45,'11111222,11111222,11111222' 
TABS,ioos:station:wmo:42044:1,2019-10-16T18:00:00Z,26.1914,-97.0507,0.0,7.33,348.6,9.09,'11111222,11111222,11111222' 
TABS,ioos:station:wmo:42044:1,2019-10-16T19:00:00Z,26.1914,-97.0507,0.0,6.99,1.5,8.58,'11111222,11111222,11111222' 
TABS,ioos:station:wmo:42044:1,2019-10-16T19:30:00Z,26.1914,-97.0507,0.0,8.11,1.7,10.31,'11111222,11111222,11111222' 
TABS,ioos:station:wmo:42044:1,2019-10-16T21:00:00Z,26.1914,-97.0507,0.0,11.65,353.6,14.64,'11111222,11111222,11111222' 
TABS,ioos:station:wmo:42044:1,2019-10-16T22:00:00Z,26.1914,-97.0507,0.0,11.24,2.3,14.12,'11111222,11111222,11111222' 
TABS,ioos:station:wmo:42044:1,2019-10-16T23:00:00Z,26.1914,-97.0507,0.0,11.56,7.6,14.65,'11111222,11111222,11111222' 
TABS,ioos:station:wmo:42044:1,2019-10-16T23:30:00Z,26.1914,-97.0507,0.0,10.83,6.0,13.61,'11111222,11111222,11111222' 
TABS,ioos:station:wmo:42044:1,2019-10-17T04:00:00Z,26.1914,-97.0507,0.0,11.63,325.5,14.37,'11111222,11111222,11111222' 
TABS,ioos:station:wmo:42044:1,2019-10-17T05:00:00Z,26.1914,-97.0507,0.0,11.78,330.9,14.66,'11111222,11111222,11111222' 
TABS,ioos:station:wmo:42044:1,2019-10-17T06:00:00Z,26.1914,-97.0507,0.0,10.93,321.5,14.09,'11111222,11111222,11111222' 
TABS,ioos:station:wmo:42044:1,2019-10-17T07:00:00Z,26.1914,-97.0507,0.0,11.06,326.5,13.71,'11111222,11111222,11111222' 
TABS,ioos:station:wmo:42044:1,2019-10-17T08:00:00Z,26.1914,-97.0507,0.0,10.72,334.3,14.28,'11111222,11111222,11111222' 
TABS,ioos:station:wmo:42044:1,2019-10-17T08:30:00Z,26.1914,-97.0507,0.0,10.74,339.5,15.1,'11111222,11111222,11111222' 
TABS,ioos:station:wmo:42044:1,2019-10-17T10:00:00Z,26.1914,-97.0507,0.0,10.75,302.0,13.66,'11111222,11111222,11111222' 
TABS,ioos:station:wmo:42044:1,2019-10-17T11:00:00Z,26.1914,-97.0507,0.0,10.59,322.0,13.76,'11111222,11111222,11111222' 
TABS,ioos:station:wmo:42044:1,2019-10-17T12:00:00Z,26.1914,-97.0507,0.0,10.86,330.7,13.2,'11111222,11111222,11111222' 
TABS,ioos:station:wmo:42044:1,2019-10-17T13:00:00Z,26.1914,-97.0507,0.0,10.12,342.1,12.57,'11111222,11111222,11111222' 
TABS,ioos:station:wmo:42044:1,2019-10-17T13:30:00Z,26.1914,-97.0507,0.0,10.07,319.6,12.37,'11111222,11111222,11111222' 
TABS,ioos:station:wmo:42044:1,2019-10-17T14:30:00Z,26.1914,-97.0507,0.0,8.63,319.0,10.61,'11111222,11111222,11111222' 
TABS,ioos:station:wmo:42044:1,2019-10-17T16:00:00Z,26.1914,-97.0507,0.0,9.17,314.6,11.58,'11111222,11111222,11111222' 
TABS,ioos:station:wmo:42044:1,2019-10-17T17:00:00Z,26.1914,-97.0507,0.0,10.52,314.7,13.65,'11111222,11111222,11111222' 
TABS,ioos:station:wmo:42044:1,2019-10-17T18:00:00Z,26.1914,-97.0507,0.0,10.86,339.1,13.81,'11111222,11111222,11111222' 
TABS,ioos:station:wmo:42044:1,2019-10-17T19:00:00Z,26.1914,-97.0507,0.0,9.86,351.6,12.05,'11111222,11111222,11111222' 
TABS,ioos:station:wmo:42044:1,2019-10-17T20:00:00Z,26.1914,-97.0507,0.0,8.21,355.4,11.11,'11111222,11111222,11111222' 
TABS,ioos:station:wmo:42044:1,2019-10-17T21:00:00Z,26.1914,-97.0507,0.0,7.78,47.3,9.96,'11111222,11111222,11111222' 
TABS,ioos:station:wmo:42044:1,2019-10-17T21:30:00Z,26.1914,-97.0507,0.0,6.95,32.6,8.77,'11111222,11111222,11111222' 
TABS,ioos:station:wmo:42044:1,2019-10-17T23:00:00Z,26.1914,-97.0507,0.0,8.36,48.2,10.45,'11111222,11111222,11111222' 
TABS,ioos:station:wmo:42044:1,2019-10-17T23:30:00Z,26.1914,-97.0507,0.0,7.3,46.5,9.18,'11111222,11111222,11111222' 
TABS,ioos:station:wmo:42044:1,2019-10-18T04:00:00Z,26.1914,-97.0507,0.0,6.31,22.5,8.43,'11111222,11111222,11111222' 
TABS,ioos:station:wmo:42044:1,2019-10-18T05:00:00Z,26.1914,-97.0507,0.0,7.33,15.0,9.64,'11111222,11111222,11111222' 
TABS,ioos:station:wmo:42044:1,2019-10-18T06:00:00Z,26.1914,-97.0507,0.0,8.06,358.4,9.78,'11111222,11111222,11111222' 
TABS,ioos:station:wmo:42044:1,2019-10-18T07:00:00Z,26.1914,-97.0507,0.0,6.97,9.1,9.12,'11111222,11111222,11111222' 
TABS,ioos:station:wmo:42044:1,2019-10-18T08:00:00Z,26.1914,-97.0507,0.0,6.68,10.6,8.52,'11111222,11111222,11111222' 
TABS,ioos:station:wmo:42044:1,2019-10-18T09:00:00Z,26.1914,-97.0507,0.0,6.79,12.0,8.45,'11111222,11111222,11111222' 
TABS,ioos:station:wmo:42044:1,2019-10-18T10:00:00Z,26.1914,-97.0507,0.0,7.86,16.8,10.58,'11111222,11111222,11111222' 
TABS,ioos:station:wmo:42044:1,2019-10-18T10:30:00Z,26.1914,-97.0507,0.0,8.06,19.3,10.03,'11111222,11111222,11111222' 
TABS,ioos:station:wmo:42044:1,2019-10-18T12:00:00Z,26.1914,-97.0507,0.0,6.94,34.1,8.66,'11111222,11111222,11111222' 
TABS,ioos:station:wmo:42044:1,2019-10-18T13:00:00Z,26.1914,-97.0507,0.0,5.93,39.8,7.59,'11111222,11111222,11111222' 
TABS,ioos:station:wmo:42044:1,2019-10-18T13:30:00Z,26.1914,-97.0507,0.0,5.98,40.0,7.73,'11111222,11111222,11111222' 
TABS,ioos:station:wmo:42044:1,2019-10-18T15:00:00Z,26.1914,-97.0507,0.0,5.7,33.8,6.92,'11111222,11111222,11111222' 
TABS,ioos:station:wmo:42044:1,2019-10-18T16:00:00Z,26.1914,-97.0507,0.0,5.13,32.6,6.64,'11111222,11111222,11111222' 
TABS,ioos:station:wmo:42044:1,2019-10-18T17:00:00Z,26.1914,-97.0507,0.0,4.15,46.2,5.26,'11111222,11111222,11111222' 
TABS,ioos:station:wmo:42044:1,2019-10-18T18:00:00Z,26.1914,-97.0507,0.0,3.93,58.4,5.03,'11111222,11111222,11111222' 
TABS,ioos:station:wmo:42044:1,2019-10-18T20:00:00Z,26.1914,-97.0507,0.0,2.78,50.8,3.97,'11111222,11111222,11111222' 
TABS,ioos:station:wmo:42044:1,2019-10-18T21:00:00Z,26.1914,-97.0507,0.0,3.74,71.8,5.0,'11111222,11111222,11111222' 
TABS,ioos:station:wmo:42044:1,2019-10-18T22:00:00Z,26.1914,-97.0507,0.0,4.5,89.5,5.86,'11111222,11111222,11111222' 
TABS,ioos:station:wmo:42044:1,2019-10-18T23:00:00Z,26.1914,-97.0507,0.0,4.37,102.4,6.13,'11111222,11111222,11111222' 
TABS,ioos:station:wmo:42044:1,2019-10-18T23:30:00Z,26.1914,-97.0507,0.0,4.87,110.6,6.2,'11111222,11111222,11111222' 
TABS,ioos:station:wmo:42044:1,2019-10-19T03:00:00Z,26.1914,-97.0507,0.0,6.45,139.2,8.02,'11111222,11111222,11111222' 
TABS,ioos:station:wmo:42044:1,2019-10-19T04:30:00Z,26.1914,-97.0507,0.0,7.17,149.6,9.22,'11111222,11111222,11111222' 
TABS,ioos:station:wmo:42044:1,2019-10-19T05:30:00Z,26.1914,-97.0507,0.0,6.77,152.6,8.44,'11111222,11111222,11111222' 
TABS,ioos:station:wmo:42044:1,2019-10-19T06:30:00Z,26.1914,-97.0507,0.0,6.15,170.8,7.86,'11111222,11111222,11111222' 
TABS,ioos:station:wmo:42044:1,2019-10-19T08:00:00Z,26.1914,-97.0507,0.0,4.42,185.1,5.85,'11111222,11111222,11111222' 
TABS,ioos:station:wmo:42044:1,2019-10-19T10:00:00Z,26.1914,-97.0507,0.0,4.87,184.1,6.14,'11111222,11111222,11111222' 
TABS,ioos:station:wmo:42044:1,2019-10-19T12:00:00Z,26.1914,-97.0507,0.0,5.81,185.9,7.25,'11111222,11111222,11111222' 
TABS,ioos:station:wmo:42044:1,2019-10-19T13:00:00Z,26.1914,-97.0507,0.0,6.03,176.9,7.72,'11111222,11111222,11111222' 
TABS,ioos:station:wmo:42044:1,2019-10-19T14:00:00Z,26.1914,-97.0507,0.0,6.35,172.7,8.61,'11111222,11111222,11111222' 
TABS,ioos:station:wmo:42044:1,2019-10-19T15:00:00Z,26.1914,-97.0507,0.0,6.75,173.1,8.66,'11111222,11111222,11111222' 
TABS,ioos:station:wmo:42044:1,2019-10-19T16:00:00Z,26.1914,-97.0507,0.0,6.25,175.9,7.54,'11111222,11111222,11111222' 
TABS,ioos:station:wmo:42044:1,2019-10-19T16:30:00Z,26.1914,-97.0507,0.0,4.82,172.7,6.33,'11111222,11111222,11111222' 
TABS,ioos:station:wmo:42044:1,2019-10-19T18:00:00Z,26.1914,-97.0507,0.0,2.47,200.3,3.68,'11111222,11111222,11111222' 
TABS,ioos:station:wmo:42044:1,2019-10-19T19:00:00Z,26.1914,-97.0507,0.0,3.92,153.1,5.11,'11111222,11111222,11111222' 
TABS,ioos:station:wmo:42044:1,2019-10-19T20:00:00Z,26.1914,-97.0507,0.0,5.14,153.1,6.34,'11111222,11111222,11111222' 
TABS,ioos:station:wmo:42044:1,2019-10-19T21:00:00Z,26.1914,-97.0507,0.0,6.51,158.1,7.86,'11111222,11111222,11111222' 
TABS,ioos:station:wmo:42044:1,2019-10-19T22:00:00Z,26.1914,-97.0507,0.0,6.37,156.5,7.8,'11111222,11111222,11111222' 
TABS,ioos:station:wmo:42044:1,2019-10-19T23:00:00Z,26.1914,-97.0507,0.0,6.61,158.9,8.13,'11111222,11111222,11111222' 
TABS,ioos:station:wmo:42044:1,2019-10-21T22:00:00Z,26.1914,-97.0507,0.0,8.64,30.5,10.48,'11111222,11111222,11111222' 
TABS,ioos:station:wmo:42044:1,2019-10-21T23:00:00Z,26.1914,-97.0507,0.0,8.3,40.9,10.61,'11111222,11111222,11111222' 
TABS,ioos:station:wmo:42044:1,2019-10-21T23:30:00Z,26.1914,-97.0507,0.0,7.23,42.6,9.28,'11111222,11111222,11111222' 
TABS,ioos:station:wmo:42044:1,2019-10-22T04:00:00Z,26.1914,-97.0507,0.0,9.46,48.8,11.68,'11111222,11111222,11111222' 
TABS,ioos:station:wmo:42044:1,2019-10-22T05:00:00Z,26.1914,-97.0507,0.0,9.37,47.6,11.52,'11111222,11111222,11111222' 
TABS,ioos:station:wmo:42044:1,2019-10-22T06:00:00Z,26.1914,-97.0507,0.0,9.11,50.9,12.38,'11111222,11111222,11111222' 
TABS,ioos:station:wmo:42044:1,2019-10-22T07:00:00Z,26.1914,-97.0507,0.0,8.96,54.6,10.91,'11111222,11111222,11111222' 
TABS,ioos:station:wmo:42044:1,2019-10-22T08:00:00Z,26.1914,-97.0507,0.0,8.72,50.1,10.98,'11111222,11111222,11111222' 
TABS,ioos:station:wmo:42044:1,2019-10-22T09:00:00Z,26.1914,-97.0507,0.0,9.46,46.2,11.8,'11111222,11111222,11111222' 
TABS,ioos:station:wmo:42044:1,2019-10-22T10:00:00Z,26.1914,-97.0507,0.0,9.49,41.1,12.19,'11111222,11111222,11111222' 
TABS,ioos:station:wmo:42044:1,2019-10-22T11:00:00Z,26.1914,-97.0507,0.0,9.82,49.1,12.27,'11111222,11111222,11111222' 
TABS,ioos:station:wmo:42044:1,2019-10-22T12:00:00Z,26.1914,-97.0507,0.0,10.21,48.8,12.56,'11111222,11111222,11111222' 
TABS,ioos:station:wmo:42044:1,2019-10-22T13:00:00Z,26.1914,-97.0507,0.0,10.21,55.4,12.22,'11111222,11111222,11111222' 
TABS,ioos:station:wmo:42044:1,2019-10-22T14:00:00Z,26.1914,-97.0507,0.0,9.76,58.6,11.84,'11111222,11111222,11111222' 
TABS,ioos:station:wmo:42044:1,2019-10-22T16:00:00Z,26.1914,-97.0507,0.0,10.31,68.3,12.85,'11111222,11111222,11111222' 
TABS,ioos:station:wmo:42044:1,2019-10-22T16:30:00Z,26.1914,-97.0507,0.0,10.08,68.6,13.18,'11111222,11111222,11111222' 
TABS,ioos:station:wmo:42044:1,2019-10-22T18:00:00Z,26.1914,-97.0507,0.0,9.29,76.4,12.14,'11111222,11111222,11111222' 
TABS,ioos:station:wmo:42044:1,2019-10-22T19:00:00Z,26.1914,-97.0507,0.0,9.32,78.1,12.37,'11111222,11111222,11111222' 
TABS,ioos:station:wmo:42044:1,2019-10-22T20:00:00Z,26.1914,-97.0507,0.0,9.03,85.2,11.95,'11111222,11111222,11111222' 
TABS,ioos:station:wmo:42044:1,2019-10-22T21:00:00Z,26.1914,-97.0507,0.0,9.12,77.4,11.05,'11111222,11111222,11111222' 
TABS,ioos:station:wmo:42044:1,2019-10-22T22:30:00Z,26.1914,-97.0507,0.0,7.99,77.0,10.46,'11111222,11111222,11111222' 
TABS,ioos:station:wmo:42044:1,2019-10-22T23:30:00Z,26.1914,-97.0507,0.0,8.23,75.3,10.66,'11111222,11111222,11111222' 
TABS,ioos:station:wmo:42044:1,2019-10-23T03:00:00Z,26.1914,-97.0507,0.0,8.81,97.4,11.3,'11111222,11111222,11111222' 
TABS,ioos:station:wmo:42044:1,2019-10-23T16:30:00Z,26.1914,-97.0507,0.0,6.86,135.9,8.87,'11111222,11111222,11111222' 
TABS,ioos:station:wmo:42044:1,2019-10-23T17:30:00Z,26.1914,-97.0507,0.0,7.21,134.3,9.06,'11111222,11111222,11111222' 
TABS,ioos:station:wmo:42044:1,2019-10-23T18:30:00Z,26.1914,-97.0507,0.0,7.33,131.0,9.27,'11111222,11111222,11111222' 
TABS,ioos:station:wmo:42044:1,2019-10-23T21:00:00Z,26.1914,-97.0507,0.0,7.22,131.6,9.03,'11111222,11111222,11111222' 
TABS,ioos:station:wmo:42044:1,2019-10-23T22:00:00Z,26.1914,-97.0507,0.0,7.13,127.1,8.85,'11111222,11111222,11111222' 
TABS,ioos:station:wmo:42044:1,2019-10-23T22:30:00Z,26.1914,-97.0507,0.0,7.11,124.6,8.77,'11111222,11111222,11111222' 
TABS,ioos:station:wmo:42044:1,2019-10-23T23:30:00Z,26.1914,-97.0507,0.0,7.18,119.3,9.53,'11111222,11111222,11111222' 
TABS,ioos:station:wmo:42044:1,2019-10-24T04:00:00Z,26.1914,-97.0507,0.0,6.41,128.6,8.32,'11111222,11111222,11111222' 
TABS,ioos:station:wmo:42044:1,2019-10-24T04:30:00Z,26.1914,-97.0507,0.0,5.72,127.5,7.55,'11111222,11111222,11111222' 
TABS,ioos:station:wmo:42044:1,2019-10-24T06:00:00Z,26.1914,-97.0507,0.0,5.2,132.1,6.72,'11111222,11111222,11111222' 
TABS,ioos:station:wmo:42044:1,2019-10-24T07:00:00Z,26.1914,-97.0507,0.0,4.53,123.1,6.03,'11111222,11111222,11111222' 
TABS,ioos:station:wmo:42044:1,2019-10-24T07:30:00Z,26.1914,-97.0507,0.0,4.74,119.5,6.07,'11111222,11111222,11111222' 
TABS,ioos:station:wmo:42044:1,2019-10-24T08:30:00Z,26.1914,-97.0507,0.0,5.29,109.7,6.58,'11111222,11111222,11111222' 
TABS,ioos:station:wmo:42044:1,2019-10-24T09:30:00Z,26.1914,-97.0507,0.0,5.7,109.3,7.34,'11111222,11111222,11111222' 
TABS,ioos:station:wmo:42044:1,2019-10-24T10:30:00Z,26.1914,-97.0507,0.0,6.48,106.3,9.2,'11111222,11111222,11111222' 
TABS,ioos:station:wmo:42044:1,2019-10-24T13:30:00Z,26.1914,-97.0507,0.0,6.39,118.3,8.05,'11111222,11111222,11111222' 
TABS,ioos:station:wmo:42044:1,2019-10-24T14:30:00Z,26.1914,-97.0507,0.0,7.4,129.9,9.38,'11111222,11111222,11111222' 
TABS,ioos:station:wmo:42044:1,2019-10-24T15:30:00Z,26.1914,-97.0507,0.0,5.38,136.1,6.7,'11111222,11111222,11111222' 
TABS,ioos:station:wmo:42044:1,2019-10-24T17:30:00Z,26.1914,-97.0507,0.0,8.06,176.8,10.87,'11111222,11111222,11111222' 
TABS,ioos:station:wmo:42044:1,2019-10-24T19:00:00Z,26.1914,-97.0507,0.0,3.59,156.2,4.79,'11111222,11111222,11111222' 
TABS,ioos:station:wmo:42044:1,2019-10-24T20:00:00Z,26.1914,-97.0507,0.0,3.19,130.0,4.34,'11111222,11111222,11111222' 
TABS,ioos:station:wmo:42044:1,2019-10-24T21:00:00Z,26.1914,-97.0507,0.0,4.42,115.0,5.9,'11111222,11111222,11111222' 
TABS,ioos:station:wmo:42044:1,2019-10-24T22:00:00Z,26.1914,-97.0507,0.0,3.84,99.6,4.91,'11111222,11111222,11111222' 
TABS,ioos:station:wmo:42044:1,2019-10-24T23:00:00Z,26.1914,-97.0507,0.0,3.39,62.8,4.66,'11111222,11111222,11111222' 
TABS,ioos:station:wmo:42044:1,2019-10-24T23:30:00Z,26.1914,-97.0507,0.0,3.54,92.6,4.67,'11111222,11111222,11111222' 
TABS,ioos:station:wmo:42044:1,2019-10-25T04:00:00Z,26.1914,-97.0507,0.0,4.83,142.9,6.38,'11111222,11111222,11111222' 
TABS,ioos:station:wmo:42044:1,2019-10-25T05:00:00Z,26.1914,-97.0507,0.0,5.44,133.6,6.99,'11111222,11111222,11111222' 
TABS,ioos:station:wmo:42044:1,2019-10-25T06:00:00Z,26.1914,-97.0507,0.0,2.79,133.0,4.1,'11111222,11111222,11111222' 
TABS,ioos:station:wmo:42044:1,2019-10-25T07:00:00Z,26.1914,-97.0507,0.0,2.05,164.3,3.13,'11111222,11111222,11111222' 
TABS,ioos:station:wmo:42044:1,2019-10-25T08:00:00Z,26.1914,-97.0507,0.0,2.34,252.2,3.61,'11111222,11111222,11111222' 
TABS,ioos:station:wmo:42044:1,2019-10-25T09:00:00Z,26.1914,-97.0507,0.0,9.13,323.7,18.25,'11111222,11111222,11111222' 
TABS,ioos:station:wmo:42044:1,2019-10-25T10:00:00Z,26.1914,-97.0507,0.0,6.31,314.4,16.47,'11111222,11111222,11111222' 
TABS,ioos:station:wmo:42044:1,2019-10-25T11:00:00Z,26.1914,-97.0507,0.0,8.81,311.6,18.14,'11111222,11111222,11111222' 
TABS,ioos:station:wmo:42044:1,2019-10-25T12:00:00Z,26.1914,-97.0507,0.0,11.8,313.3,18.68,'11111222,11111222,11111222' 
TABS,ioos:station:wmo:42044:1,2019-10-25T13:00:00Z,26.1914,-97.0507,0.0,8.89,315.0,17.07,'11111222,11111222,11111222' 
TABS,ioos:station:wmo:42044:1,2019-10-25T14:00:00Z,26.1914,-97.0507,0.0,9.32,314.0,20.15,'11111222,11111222,11111222' 
TABS,ioos:station:wmo:42044:1,2019-10-25T15:00:00Z,26.1914,-97.0507,0.0,10.03,315.5,18.11,'11111222,11111222,11111222' 
TABS,ioos:station:wmo:42044:1,2019-10-25T16:00:00Z,26.1914,-97.0507,0.0,9.01,313.0,16.33,'11111222,11111222,11111222' 
TABS,ioos:station:wmo:42044:1,2019-10-25T17:00:00Z,26.1914,-97.0507,0.0,8.03,308.8,16.06,'11111222,11111222,11111222' 
TABS,ioos:station:wmo:42044:1,2019-10-25T18:00:00Z,26.1914,-97.0507,0.0,7.48,308.6,15.07,'11111222,11111222,11111222' 
TABS,ioos:station:wmo:42044:1,2019-10-25T19:00:00Z,26.1914,-97.0507,0.0,7.49,312.3,18.85,'11111222,11111222,11111222' 
TABS,ioos:station:wmo:42044:1,2019-10-25T19:30:00Z,26.1914,-97.0507,0.0,5.76,317.3,15.81,'11111222,11111222,11111222' 
TABS,ioos:station:wmo:42044:1,2019-10-25T21:00:00Z,26.1914,-97.0507,0.0,6.75,322.5,12.71,'11111222,11111222,11111222' 
TABS,ioos:station:wmo:42044:1,2019-10-25T22:00:00Z,26.1914,-97.0507,0.0,8.64,314.7,14.55,'11111222,11111222,11111222' 
TABS,ioos:station:wmo:42044:1,2019-10-25T23:00:00Z,26.1914,-97.0507,0.0,10.84,318.2,15.2,'11111222,11111222,11111222' 
TABS,ioos:station:wmo:42044:1,2019-10-25T23:30:00Z,26.1914,-97.0507,0.0,9.25,313.4,15.17,'11111222,11111222,11111222' 
TABS,ioos:station:wmo:42044:1,2019-10-26T04:00:00Z,26.1914,-97.0507,0.0,8.27,313.7,13.03,'11111222,11111222,11111222' 
TABS,ioos:station:wmo:42044:1,2019-10-26T05:00:00Z,26.1914,-97.0507,0.0,6.27,319.9,14.48,'11111222,11111222,11111222' 
TABS,ioos:station:wmo:42044:1,2019-10-26T06:00:00Z,26.1914,-97.0507,0.0,6.73,327.0,13.06,'11111222,11111222,11111222' 
TABS,ioos:station:wmo:42044:1,2019-10-26T07:00:00Z,26.1914,-97.0507,0.0,5.15,316.5,10.3,'11111222,11111222,11111222' 
TABS,ioos:station:wmo:42044:1,2019-10-26T08:00:00Z,26.1914,-97.0507,0.0,6.81,324.4,13.05,'11111222,11111222,11111222' 
TABS,ioos:station:wmo:42044:1,2019-10-26T09:00:00Z,26.1914,-97.0507,0.0,6.32,326.2,12.26,'11111222,11111222,11111222' 
TABS,ioos:station:wmo:42044:1,2019-10-26T10:00:00Z,26.1914,-97.0507,0.0,4.77,319.3,10.24,'11111222,11111222,11111222' 
TABS,ioos:station:wmo:42044:1,2019-10-26T11:00:00Z,26.1914,-97.0507,0.0,5.26,316.0,10.77,'11111222,11111222,11111222' 
TABS,ioos:station:wmo:42044:1,2019-10-26T12:00:00Z,26.1914,-97.0507,0.0,6.01,316.6,10.69,'11111222,11111222,11111222' 
TABS,ioos:station:wmo:42044:1,2019-10-26T13:00:00Z,26.1914,-97.0507,0.0,5.71,323.2,10.82,'11111222,11111222,11111222' 
TABS,ioos:station:wmo:42044:1,2019-10-26T14:00:00Z,26.1914,-97.0507,0.0,5.55,310.3,10.91,'11111222,11111222,11111222' 
TABS,ioos:station:wmo:42044:1,2019-10-26T14:30:00Z,26.1914,-97.0507,0.0,5.24,317.4,11.54,'11111222,11111222,11111222' 
TABS,ioos:station:wmo:42044:1,2019-10-26T15:30:00Z,26.1914,-97.0507,0.0,4.48,338.7,11.17,'11111222,11111222,11111222' 
TABS,ioos:station:wmo:42044:1,2019-10-26T17:00:00Z,26.1914,-97.0507,0.0,2.87,336.2,7.61,'11111222,11111222,11111222' 
TABS,ioos:station:wmo:42044:1,2019-10-26T18:00:00Z,26.1914,-97.0507,0.0,2.25,327.1,7.19,'11111222,11111222,11111222' 
TABS,ioos:station:wmo:42044:1,2019-10-26T18:30:00Z,26.1914,-97.0507,0.0,4.26,327.1,7.3,'11111222,11111222,11111222' 
TABS,ioos:station:wmo:42044:1,2019-10-26T20:00:00Z,26.1914,-97.0507,0.0,2.13,327.6,3.67,'11111222,11111222,11111222' 
TABS,ioos:station:wmo:42044:1,2019-10-26T20:30:00Z,26.1914,-97.0507,0.0,1.13,335.4,2.83,'11111222,11111222,11111222' 
TABS,ioos:station:wmo:42044:1,2019-10-26T22:00:00Z,26.1914,-97.0507,0.0,1.12,22.2,2.28,'11111222,11111222,11111222' 
TABS,ioos:station:wmo:42044:1,2019-10-26T23:00:00Z,26.1914,-97.0507,0.0,1.36,109.3,2.17,'11111222,11111222,11111222' 
TABS,ioos:station:wmo:42044:1,2019-10-26T23:30:00Z,26.1914,-97.0507,0.0,1.94,98.6,2.79,'11111222,11111222,11111222' 
TABS,ioos:station:wmo:42044:1,2019-10-27T03:30:00Z,26.1914,-97.0507,0.0,2.76,194.1,4.53,'11111222,11111222,11111222' 
TABS,ioos:station:wmo:42044:1,2019-10-27T05:00:00Z,26.1914,-97.0507,0.0,3.06,186.0,4.72,'11111222,11111222,11111222' 
TABS,ioos:station:wmo:42044:1,2019-10-27T06:00:00Z,26.1914,-97.0507,0.0,3.22,164.8,5.43,'11111222,11111222,11111222' 
TABS,ioos:station:wmo:42044:1,2019-10-27T07:00:00Z,26.1914,-97.0507,0.0,4.0,158.3,5.78,'11111222,11111222,11111222' 
TABS,ioos:station:wmo:42044:1,2019-10-27T08:00:00Z,26.1914,-97.0507,0.0,4.18,172.2,6.39,'11111222,11111222,11111222' 
TABS,ioos:station:wmo:42044:1,2019-10-27T09:00:00Z,26.1914,-97.0507,0.0,4.73,168.7,6.54,'11111222,11111222,11111222' 
TABS,ioos:station:wmo:42044:1,2019-10-27T09:30:00Z,26.1914,-97.0507,0.0,4.79,171.1,6.11,'11111222,11111222,11111222' 
TABS,ioos:station:wmo:42044:1,2019-10-27T11:00:00Z,26.1914,-97.0507,0.0,5.79,162.0,7.47,'11111222,11111222,11111222' 
TABS,ioos:station:wmo:42044:1,2019-10-27T12:00:00Z,26.1914,-97.0507,0.0,5.79,172.7,7.7,'11111222,11111222,11111222' 
TABS,ioos:station:wmo:42044:1,2019-10-27T13:00:00Z,26.1914,-97.0507,0.0,5.75,173.0,7.62,'11111222,11111222,11111222' 
TABS,ioos:station:wmo:42044:1,2019-10-27T14:00:00Z,26.1914,-97.0507,0.0,5.6,158.2,7.33,'11111222,11111222,11111222' 
TABS,ioos:station:wmo:42044:1,2019-10-27T15:00:00Z,26.1914,-97.0507,0.0,5.06,154.5,6.67,'11111222,11111222,11111222' 
TABS,ioos:station:wmo:42044:1,2019-10-27T16:00:00Z,26.1914,-97.0507,0.0,4.97,157.4,7.23,'11111222,11111222,11111222' 
TABS,ioos:station:wmo:42044:1,2019-10-27T17:00:00Z,26.1914,-97.0507,0.0,4.6,152.8,6.17,'11111222,11111222,11111222' 
TABS,ioos:station:wmo:42044:1,2019-10-27T18:00:00Z,26.1914,-97.0507,0.0,5.08,148.0,6.69,'11111222,11111222,11111222' 
TABS,ioos:station:wmo:42044:1,2019-10-27T19:00:00Z,26.1914,-97.0507,0.0,5.65,146.0,6.88,'11111222,11111222,11111222' 
TABS,ioos:station:wmo:42044:1,2019-10-27T20:00:00Z,26.1914,-97.0507,0.0,5.83,148.8,8.01,'11111222,11111222,11111222' 
TABS,ioos:station:wmo:42044:1,2019-10-27T21:00:00Z,26.1914,-97.0507,0.0,5.79,141.0,7.65,'11111222,11111222,11111222' 
TABS,ioos:station:wmo:42044:1,2019-10-27T22:00:00Z,26.1914,-97.0507,0.0,5.96,136.6,7.16,'11111222,11111222,11111222' 
TABS,ioos:station:wmo:42044:1,2019-10-27T23:00:00Z,26.1914,-97.0507,0.0,6.21,140.9,7.84,'11111222,11111222,11111222' 
TABS,ioos:station:wmo:42044:1,2019-10-27T23:30:00Z,26.1914,-97.0507,0.0,6.82,140.6,8.48,'11111222,11111222,11111222' 
TABS,ioos:station:wmo:42044:1,2019-10-28T04:00:00Z,26.1914,-97.0507,0.0,7.31,150.5,9.04,'11111222,11111222,11111222' 
TABS,ioos:station:wmo:42044:1,2019-10-28T05:00:00Z,26.1914,-97.0507,0.0,7.39,156.3,9.12,'11111222,11111222,11111222' 
TABS,ioos:station:wmo:42044:1,2019-10-28T06:00:00Z,26.1914,-97.0507,0.0,7.82,163.7,9.47,'11111222,11111222,11111222' 
TABS,ioos:station:wmo:42044:1,2019-10-28T07:00:00Z,26.1914,-97.0507,0.0,7.44,167.2,9.04,'11111222,11111222,11111222' 
TABS,ioos:station:wmo:42044:1,2019-10-28T08:00:00Z,26.1914,-97.0507,0.0,6.87,165.5,8.56,'11111222,11111222,11111222' 
TABS,ioos:station:wmo:42044:1,2019-10-28T09:00:00Z,26.1914,-97.0507,0.0,6.66,166.0,8.55,'11111222,11111222,11111222' 
TABS,ioos:station:wmo:42044:1,2019-10-28T10:00:00Z,26.1914,-97.0507,0.0,7.02,161.4,8.77,'11111222,11111222,11111222' 
TABS,ioos:station:wmo:42044:1,2019-10-28T11:00:00Z,26.1914,-97.0507,0.0,6.19,165.3,7.49,'11111222,11111222,11111222' 
TABS,ioos:station:wmo:42044:1,2019-10-28T12:00:00Z,26.1914,-97.0507,0.0,4.8,168.4,6.21,'11111222,11111222,11111222' 
TABS,ioos:station:wmo:42044:1,2019-10-28T13:00:00Z,26.1914,-97.0507,0.0,4.49,157.9,5.61,'11111222,11111222,11111222' 
TABS,ioos:station:wmo:42044:1,2019-10-28T14:00:00Z,26.1914,-97.0507,0.0,4.76,144.7,6.34,'11111222,11111222,11111222' 
TABS,ioos:station:wmo:42044:1,2019-10-28T15:00:00Z,26.1914,-97.0507,0.0,4.89,138.3,6.11,'11111222,11111222,11111222' 
TABS,ioos:station:wmo:42044:1,2019-10-28T16:00:00Z,26.1914,-97.0507,0.0,4.83,127.9,6.23,'11111222,11111222,11111222' 
TABS,ioos:station:wmo:42044:1,2019-10-28T16:30:00Z,26.1914,-97.0507,0.0,4.77,128.4,5.81,'11111222,11111222,11111222' 
TABS,ioos:station:wmo:42044:1,2019-10-28T18:00:00Z,26.1914,-97.0507,0.0,5.31,121.8,6.61,'11111222,11111222,11111222' 
TABS,ioos:station:wmo:42044:1,2019-10-28T18:30:00Z,26.1914,-97.0507,0.0,5.5,119.4,6.56,'11111222,11111222,11111222' 
TABS,ioos:station:wmo:42044:1,2019-10-28T20:00:00Z,26.1914,-97.0507,0.0,5.63,116.4,6.8,'11111222,11111222,11111222' 
TABS,ioos:station:wmo:42044:1,2019-10-28T21:00:00Z,26.1914,-97.0507,0.0,5.35,115.0,6.73,'11111222,11111222,11111222' 
TABS,ioos:station:wmo:42044:1,2019-10-28T22:00:00Z,26.1914,-97.0507,0.0,4.83,120.8,6.05,'11111222,11111222,11111222' 
TABS,ioos:station:wmo:42044:1,2019-10-28T23:00:00Z,26.1914,-97.0507,0.0,5.49,123.4,6.59,'11111222,11111222,11111222' 